Location: Newark
(13.4899°N, 1.4745°W)
Time: 18:18:15
(UTC+00:00)

X-37B - Visible Passes

Search period start: 22 September 2020 00:00
Search period end: 02 October 2020 00:00
Orbit: 386 x 387 km, 45.0° (Epoch: 18 September)

Date Brightness Start Highest point End Pass type
(mag) Time Alt. Az. Time Alt. Az. Time Alt. Az.
25 Sep 3.5 19:27:19 10° SSW 19:27:22 10° SSW 19:27:22 10° SSW visible
26 Sep 2.9 05:16:25 10° NNW 05:19:03 23° NE 05:21:41 10° E visible
26 Sep 2.8 18:30:30 10° SSE 18:31:40 12° SE 18:32:33 11° ESE visible
27 Sep 3.8 04:20:01 10° NNE 04:20:23 10° NE 04:20:46 10° NE visible
27 Sep 0.5 19:06:22 10° SW 19:09:31 85° NW 19:10:03 58° NE visible
28 Sep 0.8 04:56:24 19° NW 04:58:30 68° NE 05:01:39 10° SE visible
28 Sep 3.8 19:46:18 10° WNW 19:47:27 12° NW 19:47:27 12° NW visible
29 Sep 3.7 04:01:34 16° E 04:01:34 16° E 04:02:33 10° E visible
29 Sep 2.5 18:46:10 10° WSW 18:48:57 28° NW 18:51:44 10° NNE visible
30 Sep 2.1 04:39:04 26° S 04:39:04 26° S 04:40:51 10° SSE visible
01 Oct 3.6 18:27:11 10° WNW 18:28:28 12° NW 18:29:45 10° NNW visible
